Regional Weather Roundup
Issued by NWS Charleston, SC

Current Version | Previous Version | Graphics & Text | Print | Product List | Glossary On
Versions: 1 2 3 4 5 6 7 8 9 10 11 12 13 14 15 16 17 18 19 20 21 22 23 24 25 26 27 28 29 30 31 32 33 34 35 36 37 38 39 40 41 42 43 44 45 46 47 48 49 50
000 ASUS42 KCHS 300727 RWRCHS REGIONAL WEATHER ROUNDUP NATIONAL WEATHER SERVICE CHARLESTON SC 300 AM EDT SUN APR 30 2017 NOTE: "FAIR" INDICATES FEW OR NO CLOUDS BELOW 12,000 FEET WITH NO SIGNIFICANT WEATHER AND/OR OBSTRUCTIONS TO VISIBILITY. NOT ALL STATIONS ARE QUALITY CONTROLLED. USE DATA WITH CAUTION... ESPECIALLY DEWPOINT OBSERVATIONS. SCZ027-030-031-034>040-042>050-300800- ...SOUTHEAST SOUTH CAROLINA... CITY SKY/WX TMP DP RH WIND PRES REMARKS N CHARLESTON CLOUDY 72 69 90 S7 30.17F WATERFRONT PRK N/A 75 72 90 S8 30.16F JOHNS ISLAND FAIR 73 72 94 CALM 30.17F PINOPOLIS N/A 72 72 100 CALM 30.08F MONCKS CORNER FAIR 70 68 94 S3 30.16F FOG SUMMERVILLE FAIR 72 70 94 SE3 30.17F BEAUFORT MCAS PTCLDY 77 74 90 SE7 30.15F BEAUFORT ARPT FAIR 73 72 94 SE5 30.15F HILTON HEAD IS PTCLDY 73 73 100 VRB6 30.16F WALTERBORO PTSUNNY 70 70 100 SE7 30.15F ALLENDALE CLOUDY 70 70 100 SE3 30.13F ...SOUTHERN MIDLANDS AND PEE DEE... CITY SKY/WX TMP DP RH WIND PRES REMARKS GEORGETOWN FAIR 72 70 94 S3 30.18F KINGSTREE CLOUDY 70 68 94 SE3 30.16F FOG ORANGEBURG CLOUDY 73 70 90 S9 30.16F BARNWELL CLOUDY 72 72 100 SE7 30.14F AIKEN PTSUNNY 68 68 100 SE7 30.17F MANNING FAIR 70 68 94 S16G24 30.16F COLUMBIA CLOUDY 74 68 81 S8 30.14F SUMTER CLOUDY 73 69 88 S10 30.14S FLORENCE MOCLDY 69 69 100 S6 30.16F MYRTLE BEACH NOT AVBL N MYRTLE BEACH PTCLDY 73 72 96 S9 30.17F $$ GAZ063-065-086>088-099>101-113>116-118-119-134>141-150-300800- ...SOUTHEAST GEORGIA... CITY SKY/WX TMP DP RH WIND PRES REMARKS SAVANNAH ARPT PTCLDY 74 69 85 SE7 30.14F HUNTER AAF MOCLDY 74 74 100 CALM 30.11F FOG FORT STEWART CLOUDY 72 69 90 SE3 30.11F STATESBORO CLOUDY 71 71 100 CALM 30.13F SYLVANIA CLOUDY N/A N/A N/A CALM 30.15F CLAXTON FAIR N/A N/A N/A CALM 30.13F ...CSRA...CENTRAL AND FAR SOUTHEAST GEORGIA... CITY SKY/WX TMP DP RH WIND PRES REMARKS THOMSON PTCLDY 70 67 90 SW6 30.17S AUGUSTA-BUSH MOCLDY 71 69 93 SE6 30.11F FOG AUGUSTA-DANIEL CLOUDY 71 67 87 SE6 30.14S SWAINSBORO CLOUDY 72 70 94 S8 30.13F VIDALIA MOCLDY 72 70 94 SE7 30.12F EASTMAN CLOUDY 73 63 71 SE7 30.13S HAZLEHURST CLOUDY 73 73 100 S6 30.11F ALMA MOCLDY 71 70 96 SE6 30.12F WAYCROSS CLOUDY 74 74 100 SE6 30.12S JESUP FAIR 70 66 88 CALM 30.13F BAXLEY CLOUDY 72 72 100 SE7 30.12F BRUNSWICK PTCLDY 77 72 83 SE8 30.14F SAINT SIMONS PTCLDY 76 71 85 SE12 30.14F $$ SCZ027-028-034-036>038-045-046-048>050-GAZ119-141-300800- ...LAKE AND SUPPLEMENTAL COASTAL OBSERVATIONS... STATION/POSITION TIME TEMP WIND PRES WAVE SWELL AIR SEA DIR/SP/G HT/PER HT/PER/DIR (UTC) (F) (DEG/KT/KT) (MB) (FT/S) (FT/S/D) WINYAH BAY 0630 74 180/ 6 1022.0S LAKE MURRAY 0720 72 170/ 11/ 15 1020.0 ACE BASIN NERRS 0630 74 140/ 1 1022.0S FORT PULASKI 0700 74 76 160/ 6/ 10 1021.2 SAPELO ISLAND 0645 75 150/ 7 1021.0S $$ ANZ835-935-AMZ111-154-330-350-352-354-370-450-454-472-300800- ...C-MAN AND BUOY OBSERVATIONS... STATION/POSITION TIME TEMP WIND PRES WAVE SWELL AIR SEA DIR/SP/G HT/PER HT/PER/DIR (UTC) (F) (DEG/KT/KT) (MB) (FT/S) (FT/S/D) BUOY 41004 0710 76 76 160/ 10/ 12 1021.5 BUOY 41008 0650 74 74 150/ 10/ 10 1020.7F 3/ 5 2/130/ 5 FOLLY BEACH CMAN 0700 75 160/ 8/ 9 1022.3F CAPERS NEARSHORE 0708 76 76 170/ 8/ 10 1021.8F FRIPP NEARSHORE 0708 74 75 160/ 6/ 10 1020.9F STATION/POSITION TIME TEMP WIND PRES WAVE SWELL AIR SEA DIR/SP/G HT/PER HT/PER/DIR (UTC) (F) (DEG/KT/KT) (MB) (FT/S) (FT/S/D) 5E ST. MARYS GA 0700 75 N/A 3/ 5 FRYING PAN BUOY 0710 75 74 190/ 10/ 14 1022.3 BUOY 41025 0650 76 75 230/ 16/ 17 1022.1F 3/ 5 2/160/ 7 CAPE LOOKOUT NC 0700 72 210/ 7/ 9 1022.3F BUOY 41002 0650 74 76 160/ 12/ 14 1024.1F 3/ 7 2/120/ 7 BUOY 41010 0710 77 78 140/ 16/ 19 1021.0 ST AUGUSTINE FL 0700 76 77 140/ 14/ 15 1021.0F $$

USA.gov is the U.S. government's official web portal to all federal, state and local government web resources and services.